{"data":{"norad_id":50170,"epoch":"2026-05-24T17:54:42.607872Z","epoch_age_seconds":90271,"freshness":"FRESH","line1":"1 50170U 21125Q   26144.74632648 -.00000073  00000+0  13480-4 0  9991","line2":"2 50170  53.2157 267.6888 0001323  90.4069 269.7075 15.08837785248079","mean_motion":15.08837785,"eccentricity":0.0001323,"inclination_deg":53.2157,"raan_deg":267.6888,"arg_perigee_deg":90.4069,"mean_anomaly_deg":269.7075,"bstar":1.348e-5,"rev_number":24807,"period_min":95.437694781749,"perigee_km":538.83492287008,"apogee_km":540.66539581244,"semimajor_km":6917.8871593413,"source":"CELESTRAK","updated_at":"2026-05-25T13:38:16.843602Z"}}